Tracking 29892 objects as of 21-Nov-2024
HD Live streaming from Space Station
objects crossing your sky now

THORAD DELTA 1 DEB

Track THORAD DELTA 1 DEB now!
10-day predictions


NORAD ID: 8395
Int'l Code: 1974-089BX
Perigee: 1,314.1 km
Apogee: 1,460.1 km
Inclination: 100.9 °
Period: 113.3 minutes
Semi major axis: 7758 km
RCS: 0.0263 m2 (small)
Launch date: November 15, 1974
Source: United States (US)
Launch site: AIR FORCE WESTERN TEST RANGE (AFWTR)

Note: This is SATELLITE DEBRIS
Your satellite tracking list
Your tracking list is empty




NASA's NSSDC Master Catalog

Two Line Element Set (TLE):
1  8395U 74089BX  24325.94515508  .00001990  00000-0  99897-2 0  9999
2  8395 100.8522 316.7315 0094117 287.9670  99.1771 12.70483483287115
Source of the keplerian elements: AFSPC